Regional Weather Roundup
Issued by NWS Sterling, VA

Home | Current Version | Previous Version | Text Only | Print | Product List | Glossary On
Versions: 1 2 3 4 5 6 7 8 9 10 11 12 13 14 15 16 17 18 19 20 21 22 23 24 25 26 27 28 29 30 31 32 33 34 35 36 37 38 39 40 41 42 43 44 45 46 47 48 49 50
602
ASUS41 KLWX 162211
RWRLWX

REGIONAL WEATHER ROUNDUP
NATIONAL WEATHER SERVICE BALTIMORE MD/WASHINGTON DC
500 PM EST SAT DEC 16 2017

Note: "FAIR" indicates few or no clouds below 12,000 feet
with no significant weather and/or obstructions to visibility.
 TC=TEMPERATURE CELSIUS

 * =Non NWS site. Station does not report precipitation (e.g. rain,
    snow, etc.), thunder, or fog.

DCZ001-MDZ009-015-VAZ040>042-051-053>054-162300-
WASHINGTON METRO

CITY           SKY/WX    TMP DP  RH WIND       PRES   REMARKS
WASHINGTON NAT PTCLDY    45  23  42 S12       30.10R
DULLES         PTCLDY    41  23  48 S7        30.08R
ANDREWS AFB    CLEAR     41  22  45 SW8       30.08R
FT BELVOIR     CLEAR     44  23  43 S6        30.10R
QUANTICO       CLEAR     45  28  51 SW7       30.13R
COLLEGE PARK*  CLEAR     44  22  42 CALM      30.09R
LEESBURG*      CLEAR     43  27  52 SW5       30.09R
MANASSAS*      CLEAR     43  23  45 S5        30.10R
GAITHERSBURG*  CLEAR     41  22  46 SW5       30.08R

$$

MDZ006>007-011-014-162300-
BALTIMORE METRO

CITY           SKY/WX    TMP DP  RH WIND       PRES   REMARKS
BWI AIRPORT    PTCLDY    42  23  46 S5        30.08R
MD SCIENCE CTR   N/A     44  24  45 MISG      30.08R
MARTIN STATE   PTCLDY    43  27  52 S7        30.10R
ANNAPOLIS      CLEAR     43  24  47 S3        30.10R
FORT MEADE*    CLEAR     41  25  52 SW7       30.11R

$$

MDZ012-015-019>023-162300-
MARYLAND EASTERN SHORE

CITY           SKY/WX    TMP DP  RH WIND       PRES   REMARKS
OCEAN CITY     CLEAR     39  26  59 SW7       30.14R
SALISBURY      CLEAR     38  24  57 S7        30.13R
BAY BRIDGE AP* CLEAR     43  27  52 SW9       30.10R
CAMBRIDGE*     CLEAR     41  25  52 VRB6      30.12R
EASTON*        PTCLDY    41  25  52 SW9       30.14R

$$

MDZ017>025-162300-
SOUTHERN MARYLAND

CITY           SKY/WX    TMP DP  RH WIND       PRES   REMARKS
PATUXENT RIVER PTCLDY    43  22  43 S5        30.12R
ST INIGOES     CLEAR     44  27  51 S9        30.13S
LEONARDTOWN*   CLEAR     43  23  45 S3        30.13S

$$

MDZ003>005-162300-
NORTH CENTRAL MARYLAND

CITY           SKY/WX    TMP DP  RH WIND       PRES   REMARKS
FREDERICK*     CLEAR     43  19  39 S8        30.10R
HAGERSTOWN APT CLEAR     43  25  49 S3        30.05R
WESTMINSTER*   CLEAR     39  27  60 S8        30.04R

$$

MDZ501>502-162300-
WESTERN MARYLAND

CITY           SKY/WX    TMP DP  RH WIND       PRES   REMARKS
OAKLAND*       CLEAR     32  23  69 W12G17    29.96R WCI  23
CUMBERLAND*    CLEAR     43  25  49 S5        30.09R

$$

VAZ025>031-162300-
SHENANDOAH VALLEY

CITY           SKY/WX    TMP DP  RH WIND       PRES   REMARKS
WINCHESTER*    CLEAR     43  23  45 S3        30.05R
FRONT ROYAL*   FAIR      45  25  45 MISG      30.05R
LURAY*         CLEAR     45  27  49 S3        30.06R
NEW MARKET*    CLEAR     43  24  46 SW3       30.05R
STAUNTON*      CLEAR     44  24  45 SW9       30.08R
WAYNESBORO*    CLEAR     44  22  41 S5        30.07R

$$

WVZ021-048>050-054>055-162300-
EASTERN WEST VIRGINIA PANHANDLE

CITY           SKY/WX    TMP DP  RH WIND       PRES   REMARKS
MARTINSBURG    CLEAR     44  23  43 W8        30.05R
PETERSBURG*    CLEAR     42  23  47 NW3       30.06R

$$

VAZ036>039-050-162300-
CENTRAL FOOTHILLS

CITY           SKY/WX    TMP DP  RH WIND       PRES   REMARKS
CHARLOTTESVILL CLEAR     46  24  42 S8        30.08R
CULPEPER*      FAIR      45  21  38 S5        30.10R
ORANGE*        CLEAR     43  23  45 CALM      30.09R
GORDONSVILLE*  CLEAR     44  24  45 S6        30.09R
WARRENTON*     CLEAR     44  18  36 S3        30.09R

$$

VAZ055>057-162300-
NORTH AND CENTRAL PIEDMONT

CITY           SKY/WX    TMP DP  RH WIND       PRES   REMARKS
FREDERICKSBRG* CLEAR     45  25  45 S8        30.12R
STAFFORD*      CLEAR     45  23  42 S3        30.15R

$$

NCZ024-NYZ072-PAZ021-071-VAZ022-071-162300-
OTHER REGIONAL OBSERVATIONS

CITY           SKY/WX    TMP DP  RH WIND       PRES   REMARKS
NEW YORK CITY  CLOUDY    38  24  57 W9G17     30.04R
PHILADELPHIA   MOCLDY    40  24  53 SW13      30.07R
PITTSBURGH     PTCLDY    43  26  51 SW6       30.03R
ROANOKE        PTCLDY    47  23  38 SW10      30.14R
RICHMOND       CLEAR     47  23  38 S8        30.15R
RALEIGH        MOCLDY    43  24  47 SW7       30.20R

$$

ANZ530>537-162300-
MARINE OBSERVATIONS

STATION/POSITION TIME  TEMP    WIND        PRES
                       AIR SEA DIR/SP/G
                 (UTC) (F)     (DEG/KT/KT) (MB)
THOMAS PT LIGHT  2200   44 44  210/ 12/ 13   N/A
BALT KEY BRIDGE  2136   44     210/  8/ 10 1018.5R
COVE POINT       2136   44     220/ 11/ 14 1020.4R
LEWISETTA        2136   45 39  230/  8/  9 1020.4R
SOLOMONS ISLAND  2136   45 45  210/  8/ 10 1019.6R
PINEY POINT      2148          240/  7/ 10   N/A

$$





USA.gov is the U.S. government's official web portal to all federal, state and local government web resources and services.